星链-35485(STARLINK-35485)

导读

STARLINK-35485是美国太空探索技术公司(SpaceX)星链(Starlink)计划中的一颗卫星,于2025年10月29日由美国发射升空,属于星链星座组网卫星,旨在为全球提供高速低延迟互联网宽带服务,是SpaceX推进全球卫星互联网部署过程中的组成部分。

基本信息
目录编号:
66251
目录名称:
STARLINK-35485
国际标识:
2025-245T
轨道中心:
EARTH
卫星名称:
星链-35485
卫星全名:
星链-35485(STARLINK-35485)
卫星状态:
在轨 (已飞行311 天)
发射日期:
2025-10-29 UTC
国别 :
美国 (US)
星等 :
--
轨道信息
数据来源 国际轨道数据
星历时间: 2026-09-05T02:13:11+0800
17小时前
查看轨道信息
半长轴: 6848.877km
偏心率: 0.0001378
轨道倾角: 53.158°
近地点辐角 85.455°
升交点赤经 170.659°
平近点角 274.661°
近地点: 469.796km
远地点: 471.684km
周期: 94.013分钟
每日圈数: 15.317001
详细信息
固有亮度:
5
最大亮度:
2.5
卫星平台:
Starlink V1.0
覆盖范围:
全球
运营商:
太空探索技术公司
运营商所在国:
美国
制造商(研发单位):
太空探索技术公司
制造商所在国:
美国
使用方式:
暂无
卫星简介
Starlink 计划是 SpaceX 推出的全球卫星互联网项目,通过发射低轨道卫星,为全球尤其是偏远地区提供高速、低延迟的互联网服务。自 2019 年起,Starlink 已部署数千颗卫星,旨在缩小全球数字鸿沟,推动互联网普及。该项目还为军事、航空等行业提供通信支持,带来广泛经济效益。
2D轨道图
3D轨道图
轨道高度分析图
轨道倾角分析图
轨道综合分析图
查看轨道综合分析图
交会数据列表
事件ID 空间交会对象 最接近时刻(TCA) 交会距离 交会风险概率(CRP) 交会风险指数(CRI) 操作
CDM_260906-095706-434506-625121
2026-09-06T
09:57:30+0000
2.545 km
极远距离
1.5367E-6 低风险 0.39
CDM_260906-161906-262506-625121
2026-09-06T
16:19:32+0000
2.751 km
极远距离
1.497016E-6 低风险 0.39
CDM_260907-104406-625106-839821
2026-09-07T
10:44:19+0000
2.961 km
极远距离
1.287788E-6 低风险 0.37
CDM_260907-004406-625106-969621
2026-09-07T
00:44:08+0000
2.891 km
极远距离
1.06465E-6 低风险 0.36
CDM_260906-082305-368006-625121
2026-09-06T
08:23:08+0000
2.692 km
极远距离
1.022703E-6 低风险 0.35